VK1ET-13 Weather Reports


time (UTC)temp
F
wind
direction
speed
knots
gust
knots
rain 1hr
in
rain 24hr
in
rain mn
in
humidity
%
barometer
mb
20260902150016 55 325 0.9 1.7 0.00 0.00 0.00 93 1011.0
20260902145023 55 8 0.9 1.7 0.00 0.00 0.00 93 1010.9
20260902144039 55 335 0.9 2.6 0.00 0.00 0.00 93 1011.4
20260902143036 55 336 0.9 2.6 0.00 0.00 0.00 92 1011.4
20260902142022 55 27 0.9 3.5 0.00 0.00 0.00 92 1011.9
20260902141028 55 356 0.9 2.6 0.00 0.00 0.00 91 1012.2
20260902140033 55 336 0.9 3.5 0.00 0.00 0.00 91 1012.2
20260902135019 56 352 1.7 4.3 0.00 0.00 0.00 89 1012.6
20260902134024 56 323 1.7 4.3 0.00 0.00 0.00 88 1012.9
20260902133030 57 286 3.5 7.0 0.00 0.00 0.00 86 1013.1
20260902132036 57 317 4.3 11.3 0.00 0.00 0.00 85 1013.3
20260902131034 57 325 3.5 7.0 0.00 0.00 0.00 86 1013.2
20260902130027 57 328 2.6 5.2 0.00 0.00 0.00 84 1013.2
20260902125021 58 305 3.5 5.2 0.00 0.00 0.00 81 1013.2
20260902123522 56 309 2.6 4.3 0.00 0.00 0.00 83 1013.0
20260902123036 55 297 0.9 2.6 0.00 0.00 0.00 85 1013.0
20260902120530 56 67 0.0 1.7 0.00 0.00 0.00 83 1013.2
20260902115531 57 151 0.0 0.9 0.00 0.00 0.00 82 1013.0
20260902114530 57 340 0.9 1.7 0.00 0.00 0.00 81 1013.1
20260902113519 57 138 0.9 0.9 0.00 0.00 0.00 81 1013.3
20260902113501 57 214 0.0 1.7 0.00 0.00 0.00 81 1013.3
20260902101048 63 295 4.3 6.1 0.00 0.00 0.00 75 1013.8
20260902100058 63 311 2.6 4.3 0.00 0.00 0.00 74 1013.5
20260902000537 63 314 5.2 10.4 0.00 0.00 0.00 67 1016.4
20260901234527 63 315 4.3 11.3 0.00 0.00 0.00 69 1016.2
20260901233524 62 315 4.3 8.7 0.00 0.00 0.00 70 1016.2
20260901231519 61 321 2.6 8.7 0.00 0.00 0.00 71 1016.0
20260901231030 61 337 5.2 11.3 0.00 0.00 0.00 71 1016.1
20260901225519 61 307 5.2 11.3 0.00 0.00 0.00 71 1016.2
20260901224526 60 304 7.8 8.7 0.00 0.00 0.00 72 1016.4
20260901224503 60 340 4.3 9.6 0.00 0.00 0.00 72 1016.4
20260901223531 60 331 2.6 3.5 0.00 0.00 0.00 73 1016.3
20260901223021 60 318 5.2 8.7 0.00 0.00 0.00 72 1016.3
20260901221530 60 308 6.1 11.3 0.00 0.00 0.00 73 1016.2
20260901220024 59 312 3.5 7.8 0.00 0.00 0.00 74 1016.1
20260901215034 60 316 3.5 11.3 0.00 0.00 0.00 74 1015.8
20260901214029 59 326 4.3 9.6 0.00 0.00 0.00 74 1015.7
20260901213030 59 307 3.5 9.6 0.00 0.00 0.00 74 1015.6
20260901212035 59 310 6.1 13.0 0.00 0.00 0.00 76 1015.4
20260901211018 58 305 4.3 10.4 0.00 0.00 0.00 78 1015.4
20260901210022 58 318 7.0 11.3 0.00 0.00 0.00 78 1015.4
20260901205034 57 314 5.2 11.3 0.00 0.00 0.00 79 1015.2
20260901204031 57 304 4.3 7.0 0.00 0.00 0.00 81 1015.3
20260901203034 56 312 3.5 7.0 0.00 0.00 0.00 83 1015.1
20260901202036 56 141 0.9 2.6 0.00 0.00 0.00 82 1015.2
20260901201019 57 7 0.9 2.6 0.00 0.00 0.00 81 1015.0
20260901200023 57 332 1.7 4.3 0.00 0.00 0.00 80 1015.0
20260901195026 58 317 3.5 6.1 0.00 0.00 0.00 80 1014.9
20260901194029 58 302 3.5 5.2 0.00 0.00 0.00 80 1014.8
20260901193033 58 308 2.6 7.0 0.00 0.00 0.00 80 1014.7
20260901192037 57 297 2.6 7.0 0.00 0.00 0.00 80 1014.7
20260901191027 58 314 3.5 9.6 0.00 0.00 0.00 80 1014.6
20260901190024 57 326 2.6 6.1 0.00 0.00 0.00 81 1014.7
20260901185027 57 330 1.7 7.8 0.00 0.00 0.00 81 1014.6
20260901184032 57 354 2.6 6.1 0.00 0.00 0.00 81 1014.5
20260901183035 57 16 2.6 6.1 0.00 0.00 0.00 81 1014.5
20260901182018 57 344 1.7 5.2 0.00 0.00 0.00 83 1015.0
20260901181035 57 358 2.6 6.1 0.00 0.00 0.00 84 1015.2
20260901180023 57 23 2.6 7.0 0.00 0.00 0.00 82 1015.1
20260901175030 57 5 2.6 5.2 0.00 0.00 0.00 82 1014.9
20260901174030 57 360 1.7 5.2 0.00 0.00 0.00 82 1014.9
20260901173034 57 17 1.7 5.2 0.00 0.00 0.00 82 1015.0
20260901172024 57 24 2.6 6.1 0.00 0.00 0.00 83 1014.9
20260901171020 58 41 1.7 5.2 0.00 0.00 0.00 80 1014.8
20260901170030 57 359 1.7 4.3 0.00 0.00 0.00 80 1015.9
20260901165026 57 27 0.9 4.3 0.00 0.00 0.00 81 1016.0
20260901164034 57 341 0.9 2.6 0.00 0.00 0.00 81 1016.0
20260901163022 57 321 0.9 1.7 0.00 0.00 0.00 81 1015.9
20260901162029 57 340 0.9 3.5 0.00 0.00 0.00 81 1016.0
20260901161038 58 2 1.7 3.5 0.00 0.00 0.00 79 1015.9
20260901160034 59 200 0.9 2.6 0.00 0.00 0.00 73 1015.7